CZ-4C R/B - Orbit

View from above orbital plane
View from above orbital plane
View from above satellite
View from above satellite

Ground track
Ground track

The orbit data is extracted from the following two-line orbital elements,

1 32290U 07055B   13144.77701014  .00005170  00000-0  23469-3 0  5898
2 32290 097.6206 212.0275 0097197 320.5125 188.2357 15.17068998305307
Epoch (UTC): 24 May 2013 18:38:53
Eccentricity: 0.0097197
inclination: 97.6206°
perigee height: 448 km
apogee height: 582 km
right ascension of ascending node: 212.0275°
argument of perigee: 320.5125°
revolutions per day: 15.17068998
mean anomaly at epoch: 188.2357°
orbit number at epoch: 30530

The dashed part of the orbit path shows where the satellite is in the earth's shadow,  

Developed and maintained by Chris Peat, Heavens-Above GmbH. Please read the updated FAQ before sending e-mail. Imprint. DLR